2017-008AR

Last updated on Mon Mar 06 2017 00:15:03 GMT+0000 (Coordinated Universal Time)

1 41987U 17008AR 17064.81426724 .00006718 00000-0 29893-3 0 9993 2 41987 97.5091 126.4133 0007631 186.3327 173.7807 15.21788793 2601
UTC large
Height (km)
Speed (km/s)
/
Latitude / Longitude
Inclination (degrees)
Orbital Period (minutes)
Azimuth
Elevation
Range (km)
Doppler Factor

Next 0 passes for location: London (51.5072 / 0.1276)

Sorry there are no passes over London.